www.pogodaiklimat.ru

Погода и климат >> Архив погоды >> Россия >> Свердловская область >> Ивдель


АРХИВ ПОГОДЫ в Ивделе

Время (UTC), дата Ветер
(напр.,м/с)
 
Видим.   Явления Облачность Т
(С)
Тd
(С)
f
(%)
Тe
(С)
Тes
(С)
Комфортность P
(гПа)
Po
(гПа)
Тmin
(С)
Tmax
(С)
R
(мм)
R24
(мм)
S
(см)
12 11.06 СЗ 3
{15}
12 км гроза, ливневой дождь 10/10 600 м
[Cb cap]
+16.8 +11.4 70 +17 +17 1008.5 997.4
15 11.06 З 1 50 км {гроза, ливн. осадки} 8/8 1000 м
[Sc]
+19.1 +13.0 68 +21 +22 комфорт 1006.5 995.5 +24.7 0.5
18 11.06 З 1 50 км 6/6 1000 м
[Sc]
+14.9 +10.8 76 +15 +15 1006.3 995.2
21 11.06 З 2 50 км 10/10 1000 м
[Sc]
+13.4 +10.1 80 +13 +13 1004.9 993.7
00 12.06 З 3 40 км в посл. час ливневой дождь 9/9 600 м
[Cb cap]
+14.7 +9.8 72 +14 +14 1003.8 992.7
03 12.06 З 4 50 км 8/6 600 м
[Cb cap Ac trans]
+16.5 +8.9 61 +16 +17 1002.7 991.7 +12.7
06 12.06 З 4-10
{10}
50 км в посл. час ливневой дождь 6/6 600 м
[Cb cap]
+17.0 +6.3 49 +17 +20 1001.8 990.8
09 12.06 З 6-11
{16}
50 км 9/9 600 м
[Cb cap]
+18.1 +3.5 38 +18 +18 1001.0 990.1
12 12.06 СЗ 6-12
{14}
50 км 8/8 600 м
[Cb cap]
+16.2 -0.1 33 +15 +16 1002.2 991.2
15 12.06 З 5
{14}
50 км 8/8 600 м
[Cb cap]
+11.6 +2.1 52 +9 +9 1003.1 991.8 +19.0 0.0
18 12.06 СЗ 4
{12}
45 км слаб. ливневой дождь 9/9 600 м
[Cb cap]
+8.0 +0.3 58 +5 +5 1004.5 993.1
21 12.06 СЗ 5
{12}
30 км слаб. ливневой дождь 10/10 600 м
[Cb cap]
+5.8 -0.0 66 +2 +2 1006.4 994.9
00 13.06 СЗ 3 50 км {ливн. осадки} 6/3 1000 м
[Sc Ac trans Ci fib]
+5.4 -0.2 67 +2 +3 1007.0 995.5
03 13.06 СЗ 4 50 км 9/9 600 м
[Cb cap]
+7.0 -1.3 55 +4 +4 1007.6 996.2 +4.9 0.0
06 13.06 СЗ 5-12
{12}
50 км 9/9 600 м
[Cb cap]
+9.0 -3.0 43 +6 +7 1008.0 996.6
09 13.06 СЗ 6-11
{15}
50 км 9/9 600 м
[Cb cap]
+9.8 -3.4 39 +7 +7 1008.9 997.5
12 13.06 СЗ 7-12
{14}
50 км 9/8 600 м
[Cb cap Ci fib]
+10.0 -3.1 40 +7 +7 1009.7 998.3
15 13.06 СЗ 5
{16}
45 км в посл. час ливневой дождь 9/9 600 м
[Cb cap]
+8.0 -0.4 55 +5 +5 1010.7 999.2 +10.9 0.0
18 13.06 штиль 0
{12}
45 км в посл. час ливневой дождь 10/10 600 м
[Cb cap]
+5.8 +1.8 75 +5 +5 1010.2 998.6
21 13.06 штиль 0
{11}
50 км 10/10 600 м
[Cb cap]
+5.7 +1.1 72 +5 +5 1009.6 998.0
00 14.06 З 4 50 км 9/9 600 м
[Cb cap]
+6.2 -1.1 59 +3 +3 1008.1 996.6
03 14.06 СЗ 5
{12}
50 км 9/9 600 м
[Cb cap]
+7.6 -2.1 50 +4 +5 1007.8 996.4 +3.0 0.0
06 14.06 СЗ 4
{11}
50 км 9/9 600 м
[Cb cap]
+8.9 -2.7 44 +6 +7 1007.9 996.5
09 14.06 С 2
{10}
50 км 10/10 600 м
[Cb cap]
+9.5 -1.4 46 +8 +8 1008.7 997.3
12 14.06 С 2 45 км слаб. ливневой дождь 9/9 600 м
[Cb cap]
+8.3 -1.5 50 +7 +8 1009.5 998.0
15 14.06 СЗ 3 50 км 9/9 600 м
[Cb cap]
+7.8 -2.7 47 +6 +6 1009.9 998.4 +9.8 0.0
18 14.06 СЗ 2 50 км 10/10 600 м
[Cb cap]
+6.4 -2.1 55 +5 +5 1009.6 998.1
21 14.06 штиль 0 50 км 10/10 600 м
[Cb cap]
+5.0 -1.1 65 +4 +4 1009.3 997.7
00 15.06 штиль 0 50 км 6/4 1000 м
[Sc Ac trans Ci fib]
+3.7 -0.8 72 +3 +3 1008.8 997.1
03 15.06 З 2 50 км 9/4 1000 м
[Sc Ac trans Ci sp]
+8.3 -1.0 52 +7 +9 1008.3 996.9 +3.4
06 15.06 З 3 50 км 9/6 600 м
[Cu Sc Ci fib]
+12.0 -1.1 40 +11 +14 1006.5 995.2
09 15.06 ЮЗ 4 50 км в посл. час ливневой дождь 9/9 600 м
[Cb cap]
+13.0 -0.6 39 +12 +13 1004.9 993.7
12 15.06 З 4 50 км в посл. час ливневой дождь 9/9 600 м
[Cb cap]
+12.5 +2.5 50 +11 +11 1003.9 992.7
15 15.06 З 3
{10}
50 км {ливн. осадки} 9/9 600 м
[Cb cap]
+10.6 +3.5 61 +9 +9 1003.3 992.0 +14.1
18 15.06 С 1 50 км {ливн. осадки} 9/9 600 м
[Cb cap]
+8.8 +2.8 66 +8 +8 1003.0 991.6
21 15.06 штиль 0 50 км 8/8 600 м
[Cb cap]
+5.4 +1.9 78 +5 +5 1002.6 991.1
00 16.06 З 1 50 км 8/5 1000 м
[Sc Ac trans]
+6.1 +1.7 73 +5 +5 1002.5 991.0
03 16.06 СЗ 4 50 км 8/6 1000 м
[Sc Ac trans Ci fib]
+10.2 +0.7 52 +8 +9 1002.0 990.7 +4.3
06 16.06 СЗ 4 50 км 9/9 600 м
[Cb cap]
+11.6 -1.7 40 +10 +11 1001.7 990.4
09 16.06 СЗ 3 50 км {ливн. осадки} 9/9 600 м
[Cb cap]
+13.0 -3.7 31 +12 +13 1001.6 990.5
12 16.06 СЗ 2 50 км в посл. час ливневой дождь 9/9 600 м
[Cb cap]
+11.5 -0.3 44 +11 +12 1002.6 991.3
15 16.06 СЗ 1 50 км {ливн. осадки} 9/9 600 м
[Cb cap]
+11.5 -1.1 42 +12 +12 1003.5 992.3 +14.0 0.3
18 16.06 штиль 0 50 км {ливн. осадки} 9/9 600 м
[Cb cap]
+7.2 +3.1 75 +6 +6 1004.3 992.8
21 16.06 штиль 0 50 км 6/3 1000 м
[Sc Ci fib]
+1.9 0.0 87 +1 +1 1004.1 992.5
00 17.06 ЮВ 1 50 км 8/4 1000 м
[Sc Ci fib]
+0.3 -1.2 90 -2 -2 1003.4 991.7
03 17.06 ЮЗ 2 50 км 10/10 600 м
[Cb cap]
+10.0 +2.7 60 +9 +9 1002.0 990.7 -0.1
06 17.06 Ю 2 50 км в посл. час ливневой дождь 10/10 600 м
[Cb cap]
+11.3 +4.3 62 +10 +10 1000.8 989.6
09 17.06 ЮЗ 2 18 км слаб. ливневой дождь 10/10 600 м
[Cb cap]
+10.8 +7.3 79 +10 +10 1000.4 989.2
12 17.06 СЗ 1 50 км в посл. час ливневой дождь 9/9 600 м
[Cb cap]
+13.6 +4.8 55 +14 +15 1000.4 989.3
15 17.06 С 1 50 км {ливн. осадки} 9/9 600 м
[Cb cap]
+11.9 +5.6 65 +12 +12 1002.1 990.9 +14.5 0.3
18 17.06 СЗ 2 50 км {ливн. осадки} 9/9 600 м
[Cb cap]
+9.1 +2.4 63 +8 +8 1003.5 992.2
21 17.06 СЗ 3 50 км 9/9 600 м
[Cb cap]
+7.2 +1.2 66 +5 +5 1004.5 993.1
00 18.06 штиль 0 50 км 9/9 600 м
[Cb cap]
+5.2 +1.5 77 +4 +4 1005.1 993.5
03 18.06 СЗ 3 50 км 5/5 1000 м
[Sc]
+10.1 +1.5 55 +8 +10 1005.8 994.5 +4.4
06 18.06 СЗ 4 50 км 8/8 600 м
[Cu Sc]
+13.3 -1.4 36 +12 +14 1004.7 993.5

 

Местоположение метеостанции Ивдель (Свердловская область, Россия): широта 60.68 долгота 60.45 высота над уровнем моря 94 м.

В архиве по умолчанию представлена погода в Ивделе за последнюю неделю. Архивные данные за месяц целиком и за предыдущие месяцы, начиная с января 2011 года, Вы можете получить, выбрав интересующий диапазон дат из раскрывающегося списка и нажав кнопку "Ввод!".


*Определитесь, кто Вы:
робот инопланетянин человек

Внимание! Время в таблицах - всемирное. Для получения местного времени необходимо прибавить поправку, которая равна 5 ч.

Смотрите также архив погоды в соседних городах и на ближайших метеорологических станциях:

Погода в Североуральске (Свердловская область, Россия) (56 км)
Погода в Бурмантово (Свердловская область, Россия) (67 км)
Погода в Атымье (Свердловская область, Россия) (103 км)
Погода в Карпинске (Свердловская область, Россия) (106 км)
Погода в Серове (Свердловская область, Россия) (120 км)
Погода в Кытлыме (Свердловская область, Россия) (148 км)
Погода в Югорске (Ханты-Мансийский АО, Россия) (172 км)
Погода в Гарях (Свердловская область, Россия) (174 км)
Погода в Агирише (Ханты-Мансийский АО, Россия) (195 км)
Погода в Няксимволе (Ханты-Мансийский АО, Россия) (196 км)

Пояснения к столбцам:

Ветер - указаны скорость ветра в м/с - средняя за 10 мин, порывы в срок и между сроками (в фигурных скобках) и направление, откуда дует ветер: С - северный, СВ - северо-восточный, В - восточный, ЮВ - юго-восточный, Ю - южный, ЮЗ - юго-западный, З - западный, СЗ - северо-западный.
Видимость - горизонтальная дальность видимости в метрах или километрах. При видимости от 1 до 10 км при отсутствии осадков обычно наблюдается дымка, при ухудшении видимости до 1 км и менее - туман. В сухую погоду видимость может ухудшаться дымом, пылью или мглою.
Явления - указаны атмосферные явления, наблюдавшиеся в срок или в последний час перед сроком; фигурными скобками обозначены явления, наблюдавшиеся между сроками (за 1-3 часа до срока); квадратными скобками обозначены град или гололедные отложения с указанием их диаметра в мм.
Облачность - указаны через наклонную черту общая и нижняя облачность в баллах и высота нижней границы облаков в метрах; квадратными скобками обозначены формы облаков: Ci - перистые, Cs - перисто-слоистые, Cc - перисто-кучевые, Ac - высококучевые, As - высокослоистые, Sc - слоисто-кучевые, Ns - слоисто-дождевые, Cu - кучевые, Cb - кучево-дождевые. Подробнее классификацию облаков см. в Атласе облаков (PDF).
T - Температура воздуха - температура, измеренная на высоте 2 м над землей.
Td - Температура точки росы - температура, при понижении до которой содержащийся в воздухе водяной пар достигнет насыщения.
f - Относительная влажность воздуха - влажноcть воздуха, измеренная на высоте 2 м над землей.
Te - Эффективная температура - температура, которую ощущает одетый по сезону человек в тени. Характеристика душности погоды. При расчете учитывается влияние влажности воздуха и скорости ветра на теплоощущения человека.
Tes - Эффективная температура на солнце - температура, которую ощущает человек, с поправкой на солнечный нагрев. Характеристика знойности погоды. Зависит от высоты солнца над горизонтом, облачности и скорости ветра. Ночью, в пасмурную погоду, а также при ветре 12 м/с и более поправка равна нулю.
P - Атмосферное давление - приведенное к уровню моря атмосферное давление.
Po - Атмосферное давление - измеренное на уровне метеостанции атмосферное давление.
Tmin - Минимальная температура - минимум температуры воздуха на высоте 2 м над землей.
Tmax - Максимальная температура - максимум температуры воздуха на высоте 2 м над землей.
R - Количество осадков - Количество выпавших осадков за период времени, мм. При наведении курсора мыши на число - период времени, за который выпало указанное количество осадков.
R24 - Количество осадков - Количество выпавших осадков за 24 часа, мм.
S - Снежный покров - Высота снежного покрова, см. При наведении курсора мыши на число - состояние снежного покрова и степень покрытия местности в баллах.